map of LFSO home
Great Circle Mapper logo
LFSO - Airport
Location
City:  Nancy, France
Name:Ochey
ICAO:LFSO

Details
Type:Airport (Aerodrome, Airfield)
Use:Military
Latitude:4834'59"N (48.583186)
Longitude:557'16"E (5.954525)
Elevation:1106 ft (337 m)
Variation:1.32E (WMM2015 magnetic declination)
0.13 annual change
Runways:1
Longest:7874 × 148 ft (2400 × 45 m)

Time
Time Zone:UTC+1 (DST+2)
Local Time:

Weather
METAR:LFSO 280500Z AUTO 18003KT 9999 BKN048 BKN160 11/05 Q1019
TAF:LFSO 280200Z 2803/2903 20005KT CAVOK
TEMPO 2814/2818 SHRA BKN040TCU

Related Locations
Nearby:
Farthest:CHT: 12082 mi / 19443 km
Waitangi [Tuuta], Chatham Islands, NZ

Find:

   beyond  
but within

Other Information
Maps:
NOTAMs:
Links:
Sources:

  
flag of France   

Sectional Chart

Flight Planning
at skyvector.com

Satellite Image

Google Maps Satellite View

 

Copyright © 2004-2015 Karl L. Swartz. All rights reserved.
The Great Circle Mapper name and logo are trademarks of the Great Circle Mapper.
All other trademarks mentioned herein belong to their respective owners.
Please see credits for attibutions and further copyright information.

  Follow gcmap on Facebook Follow gcmap on Twitter Follow gcmap on Google+

hCard Microformat

Geo Microformat